カタログに戻る

CZ-6A DEB

運用中SSO
NORAD 54561·DEBRIS·🇨🇳 China

打ち上げ Nov 11, 2022 から Taiyuan Satellite Launch Center

Loading…

次のパス (今後24時間)

TLE

最新Source: Space-Track

元期: Sep 14, 2026, 01:14 UTC

1 54561U 22151LM  26257.05182616  .00000837  00000-0  29927-3 0  9993
2 54561  98.7686 301.6376 0132010 212.9572 146.3331 14.32076837199919

AllMySatでCZ-6A DEBをリアルタイム追跡

Download on the App Store